Content
SEND FEEDBACK

Daily
Averages
Monthly
Summary
Pakistan

GOLRA, PAKISTAN


Home > Asia > Pakistan
Elevation: 1667 feet     Latitude: 33 36N     Longitude: 073 06E

WEATHER
 
SELECT A DAY
Number of Records: 149,376;   Date Range: 12/24/96 - 8/12/14
 
SHARE

PRINT THIS DATA

[ ← Previous Day ]
WEATHER ALMANAC - FEBRUARY 5, 2013
[ Next Day → ]
[ °C ]   °F
Weather ElementAverageHighLow
Temperature45 °F52 °F (5:00 pm) (9:25 am)
Dewpoint43.7 °F51.8 °F (9:00 am) (7:00 pm)
Humidity94.6 %100 % (8:00 am)83 % (5:00 pm)
Barometer27.69 in30.29 in (11:00 pm) (7:00 pm)
Wind Speed25.8 mph50.6 mph (10:00 am)
Weather ElementAverage
Visibility2 mi
Wind DirectionWSW (248.3 °)

Weather ElementTotal
Precipitation---
Heating Degree Days39 (Base 65)
Averaged from 27 records on February 5, 2013
WEATHER CONDITIONS BREAKOUT
WIND DIRECTION BREAKOUT
WEATHER BY HOUR - FEBRUARY 5, 2013
[ °C ]   °F
Local TimeTemperatureDewpointHumidityBarometerVisibilityWind DirectionWind SpeedGust SpeedPrecipitationEventsConditions
1:00 AM44.6 °F42.8 °F93 %29.98 in2.5 miNW (310°)13.8 mphRainRain
2:00 AM44.6 °F42.8 °F93 %29.92 in3.7 miNW (310°)11.5 mphRainRain
3:00 AM44.6 °F42.8 °F93 %29.92 in3.7 miNW (310°)23.0 mphRainRain
4:00 AM44.6 °F42.8 °F93 %29.86 in2.5 miNW (310°)18.4 mphRainRain
5:00 AM45.0 °F43.0 °F88 %29.81 inNW (310°)18.4 mphRainLight Rain
5:00 AM44.6 °F42.8 °F93 %29.80 in2.5 miNW (310°)18.4 mphRainRain
8:00 AM46.4 °F46.4 °F100 %29.80 in1.2 miCalmRainRain
9:00 AM51.8 °F51.8 °F100 %29.77 in0.9 miNE (50°)25.3 mphRainRain
9:25 AM0.0 °F0.0 °F0.0 mi57.5 (2013°)0.00 inRain50
10:00 AM51.8 °F51.8 °F100 %29.77 in0.6 miNE (50°)50.6 mphRainRain
10:15 AM0.0 °F0.0 °F1.2 miNE (50°)50.6 mphRain-ThunderstormThunderstorms and Rain
11:00 AM51.0 °F51.0 °F99 %29.88 in1.0 miNE (50°)34.5 mphRain-ThunderstormThunderstorms and Rain
11:00 AM51.8 °F51.8 °F100 %29.80 in1.2 miNE (50°)23.0 mphRain-ThunderstormThunderstorms and Rain
12:00 PM50.0 °F50.0 °F100 %29.80 in2.5 miSE (130°)27.6 mphRain-ThunderstormThunderstorms and Rain
1:00 PM50.0 °F48.2 °F94 %29.83 in2.5 miNE (50°)27.6 mphRain-ThunderstormThunderstorms and Rain
2:00 PM50.0 °F50.0 °F100 %29.83 in1.9 miNW (310°)18.4 mphRain-ThunderstormThunderstorms and Rain
3:00 PM51.8 °F51.8 °F100 %29.86 in2.5 miNE (50°)23.0 mphRain-ThunderstormThunderstorms and Rain
4:00 PM51.8 °F48.2 °F88 %29.86 in2.5 miNE (50°)34.5 mphRain-ThunderstormThunderstorms and Rain
5:00 PM52.0 °F48.0 °F83 %29.96 in2.0 miSE (130°)34.5 mphRain-ThunderstormThunderstorms and Rain
5:00 PM51.8 °F48.2 °F88 %29.89 in2.5 miSE (130°)34.5 mphRain-ThunderstormThunderstorms and Rain
6:00 PM50.0 °F48.2 °F94 %29.95 in1.9 miSE (130°)34.5 mphRain-ThunderstormThunderstorms and Rain
7:00 PM50.0 °F48.2 °F94 %30.01 in1.9 miSE (130°)34.5 mphRain-ThunderstormThunderstorms and Rain
8:00 PM48.2 °F46.4 °F93 %30.06 in1.9 miSE (130°)23.0 mphRain-ThunderstormThunderstorms and Rain
9:00 PM46.4 °F44.6 °F93 %30.15 in1.9 miNorth (360°)23.0 mphRain-ThunderstormThunderstorms and Rain
10:00 PM46.4 °F46.4 °F100 %30.21 in1.9 miNorth (360°)23.0 mphRain-ThunderstormThunderstorms and Rain
11:00 PM48.0 °F46.0 °F92 %30.29 inNW (310°)23.0 mphRain-ThunderstormThunderstorms and Rain
11:00 PM48.2 °F46.4 °F93 %30.21 in2.5 miNW (310°)23.0 mphRain-ThunderstormThunderstorms and Rain
Hourly data recorded from OPRN, located miles away from Golra, Pakistan







STORIES FROM OUR PARTNERS